Retour au catalogue

ARIANE 44L+ DEB

ActifGTO
NORAD 23239·DEBRIS·🇫🇷 France

Lancé Apr 15, 1992 depuis Guiana Space Centre

Loading…

TLE

VieillissantSource: Space-Track

Époque: Sep 14, 2026, 11:01 UTC

1 23239U 92021J   26257.45968465 -.00000068  00000-0  00000-0 0  9997
2 23239   3.8159  58.2396 6983363   9.0910 305.9153  2.23772532271017

Suivez ARIANE 44L+ DEB en temps réel avec AllMySat

Download on the App Store